Radiation Dose at Monitoring Post of Fukushima Daini Nuclear Power Station
Date,Time,MP-1(microSv/h),MP-2(microSv/h),MP-3(microSv/h),MP-4(microSv/h),MP-5(microSv/h),MP-6(microSv/h),MP-7(microSv/h),Wind Direction,Wind Velocity(m/s),Rain
2017/11/12,00:00,0.335,0.213,0.354,0.333,0.315,0.172,0.102,northwest,5.1,No
2017/11/12,00:10,0.333,0.214,0.353,0.333,0.313,0.172,0.102,northwest,3.6,No
2017/11/12,00:20,0.333,0.215,0.352,0.332,0.314,0.172,0.102,northwest,2.7,No
2017/11/12,00:30,0.334,0.214,0.353,0.334,0.315,0.172,0.103,northwest,2.0,No
2017/11/12,00:40,0.332,0.214,0.353,0.333,0.314,0.173,0.102,west-northwest,3.1,No
2017/11/12,00:50,0.333,0.214,0.353,0.333,0.314,0.172,0.102,west-northwest,4.8,No
2017/11/12,01:00,0.334,0.212,0.354,0.333,0.314,0.172,0.102,west-northwest,3.6,No
2017/11/12,01:10,0.333,0.214,0.352,0.332,0.313,0.173,0.102,northwest,4.8,No
2017/11/12,01:20,0.332,0.213,0.353,0.331,0.313,0.172,0.103,west-northwest,5.4,No
2017/11/12,01:30,0.333,0.212,0.353,0.334,0.316,0.172,0.102,northwest,5.3,No
2017/11/12,01:40,0.333,0.213,0.352,0.332,0.314,0.172,0.103,north,3.3,No
2017/11/12,01:50,0.331,0.213,0.352,0.332,0.313,0.172,0.103,north,2.6,No
2017/11/12,02:00,0.333,0.214,0.354,0.333,0.315,0.171,0.102,northwest,2.1,No
2017/11/12,02:10,0.333,0.213,0.352,0.333,0.314,0.173,0.103,northwest,3.3,No
2017/11/12,02:20,0.333,0.213,0.352,0.332,0.312,0.172,0.103,north-northeast,2.6,No
2017/11/12,02:30,0.332,0.215,0.354,0.332,0.315,0.172,0.103,north-northeast,2.0,No
2017/11/12,02:40,0.335,0.213,0.352,0.332,0.315,0.173,0.102,northeast,1.9,No
2017/11/12,02:50,0.333,0.214,0.351,0.332,0.314,0.172,0.103,north,2.2,No
2017/11/12,03:00,0.334,0.214,0.354,0.331,0.314,0.172,0.102,north-northeast,2.3,No
2017/11/12,03:10,0.333,0.214,0.353,0.333,0.314,0.172,0.103,north,1.5,No
2017/11/12,03:20,0.332,0.215,0.353,0.332,0.314,0.172,0.103,north-northeast,2.0,No
2017/11/12,03:30,0.333,0.213,0.354,0.333,0.314,0.173,0.102,northeast,3.4,No
2017/11/12,03:40,0.334,0.214,0.352,0.332,0.315,0.173,0.103,northeast,4.6,No
2017/11/12,03:50,0.333,0.214,0.352,0.331,0.313,0.172,0.103,north-northeast,4.1,No
2017/11/12,04:00,0.333,0.214,0.355,0.330,0.313,0.172,0.102,north-northeast,5.6,No
2017/11/12,04:10,0.333,0.214,0.352,0.333,0.315,0.173,0.102,north,3.5,No
2017/11/12,04:20,0.332,0.213,0.353,0.332,0.313,0.172,0.102,north-northeast,1.9,No
2017/11/12,04:30,0.333,0.213,0.352,0.333,0.313,0.173,0.103,north,2.9,No
2017/11/12,04:40,0.334,0.213,0.353,0.331,0.315,0.173,0.102,north,3.3,No
2017/11/12,04:50,0.332,0.215,0.351,0.332,0.313,0.173,0.102,north,2.6,No
2017/11/12,05:00,0.332,0.213,0.353,0.333,0.313,0.172,0.103,north,2.2,No
2017/11/12,05:10,0.334,0.213,0.353,0.332,0.314,0.172,0.102,north-northwest,2.0,No
2017/11/12,05:20,0.334,0.213,0.352,0.333,0.314,0.173,0.101,north-northwest,2.4,No
2017/11/12,05:30,0.333,0.213,0.353,0.331,0.314,0.172,0.103,north-northwest,2.4,No
2017/11/12,05:40,0.334,0.214,0.353,0.331,0.314,0.173,0.102,north-northwest,2.1,No
2017/11/12,05:50,0.333,0.213,0.352,0.332,0.313,0.172,0.102,northwest,0.9,No
2017/11/12,06:00,0.332,0.214,0.353,0.333,0.313,0.172,0.103,northwest,1.0,No
2017/11/12,06:10,0.333,0.215,0.354,0.333,0.315,0.172,0.102,west-northwest,1.5,No
2017/11/12,06:20,0.334,0.214,0.353,0.333,0.313,0.172,0.103,west,1.2,No
2017/11/12,06:30,0.332,0.213,0.354,0.331,0.314,0.173,0.102,west,0.9,No
2017/11/12,06:40,0.333,0.214,0.354,0.332,0.314,0.172,0.102,west,1.0,No
2017/11/12,06:50,0.332,0.212,0.353,0.330,0.313,0.172,0.103,west,1.3,No
2017/11/12,07:00,0.333,0.213,0.353,0.332,0.314,0.172,0.102,west,1.8,No
2017/11/12,07:10,0.334,0.213,0.354,0.332,0.315,0.173,0.102,west,1.8,No
2017/11/12,07:20,0.333,0.214,0.352,0.330,0.311,0.173,0.102,northwest,2.4,No
2017/11/12,07:30,0.333,0.213,0.351,0.332,0.315,0.172,0.102,west-northwest,1.8,No
2017/11/12,07:40,0.334,0.214,0.353,0.330,0.312,0.172,0.101,west-northwest,1.5,No
2017/11/12,07:50,0.331,0.213,0.353,0.329,0.312,0.173,0.103,northwest,1.5,No
2017/11/12,08:00,0.333,0.214,0.353,0.330,0.314,0.173,0.102,west-northwest,1.5,No
2017/11/12,08:10,0.333,0.214,0.353,0.329,0.312,0.172,0.102,west-northwest,2.1,No
2017/11/12,08:20,0.332,0.213,0.352,0.333,0.316,0.172,0.103,west-northwest,2.5,No
2017/11/12,08:30,0.334,0.213,0.353,0.328,0.313,0.172,0.102,northwest,2.4,No
2017/11/12,08:40,0.331,0.215,0.350,0.333,0.315,0.171,0.103,west-northwest,2.6,No
2017/11/12,08:50,0.333,0.213,0.353,0.330,0.314,0.173,0.102,northwest,4.5,No
2017/11/12,09:00,0.331,0.214,0.353,0.332,0.314,0.172,0.103,west-northwest,3.2,No
2017/11/12,09:10,0.332,0.212,0.352,0.329,0.314,0.172,0.102,west-northwest,3.5,No
2017/11/12,09:20,0.334,0.214,0.353,0.331,0.313,0.172,0.102,northwest,3.2,No
2017/11/12,09:30,0.332,0.213,0.352,0.330,0.317,0.173,0.101,northwest,3.6,No
2017/11/12,09:40,0.333,0.214,0.353,0.330,0.314,0.172,0.102,north-northwest,4.2,No
2017/11/12,09:50,0.330,0.213,0.353,0.332,0.314,0.172,0.102,north,4.3,No
2017/11/12,10:00,0.332,0.212,0.351,0.330,0.313,0.171,0.102,north-northwest,5.0,No
2017/11/12,10:10,0.330,0.213,0.353,0.332,0.314,0.173,0.102,north-northwest,6.0,No
2017/11/12,10:20,0.332,0.215,0.351,0.330,0.312,0.171,0.102,northwest,5.6,No
2017/11/12,10:30,0.329,0.212,0.354,0.332,0.315,0.173,0.103,north-northwest,5.9,No
2017/11/12,10:40,0.332,0.214,0.353,0.330,0.312,0.171,0.102,north-northwest,6.5,No
2017/11/12,10:50,0.331,0.213,0.352,0.329,0.316,0.173,0.103,north-northwest,6.2,No
2017/11/12,11:00,0.331,0.215,0.354,0.332,0.312,0.171,0.101,northwest,4.2,No
2017/11/12,11:10,0.332,0.213,0.351,0.329,0.316,0.173,0.103,north,4.8,No
2017/11/12,11:20,0.332,0.214,0.352,0.332,0.313,0.172,0.103,north-northwest,5.1,No
2017/11/12,11:30,0.333,0.214,0.351,0.330,0.315,0.173,0.102,north,5.5,No
2017/11/12,11:40,0.331,0.214,0.355,0.330,0.314,0.173,0.103,north-northwest,4.5,No
2017/11/12,11:50,0.334,0.214,0.352,0.332,0.314,0.173,0.102,northwest,4.2,No
2017/11/12,12:00,0.331,0.214,0.353,0.329,0.316,0.172,0.103,northwest,3.7,No
2017/11/12,12:10,0.333,0.214,0.350,0.332,0.314,0.173,0.103,north,3.6,No
2017/11/12,12:20,0.331,0.213,0.352,0.331,0.315,0.172,0.102,north-northwest,2.5,No
2017/11/12,12:30,0.335,0.214,0.352,0.333,0.316,0.173,0.102,northwest,1.7,No
2017/11/12,12:40,0.332,0.214,0.356,0.332,0.315,0.171,0.102,north-northwest,3.0,No
2017/11/12,12:50,0.334,0.214,0.352,0.334,0.316,0.172,0.103,north-northwest,4.6,No
2017/11/12,13:00,0.332,0.214,0.354,0.331,0.314,0.172,0.102,north-northwest,2.6,No
2017/11/12,13:10,0.334,0.215,0.349,0.334,0.317,0.173,0.102,northwest,2.7,No
2017/11/12,13:20,0.332,0.214,0.354,0.331,0.312,0.172,0.103,northwest,2.3,No
2017/11/12,13:30,0.334,0.214,0.351,0.332,0.316,0.173,0.102,northwest,1.5,No
2017/11/12,13:40,0.331,0.215,0.353,0.331,0.314,0.173,0.103,northwest,0.7,No
2017/11/12,13:50,0.335,0.214,0.352,0.333,0.317,0.172,0.102,northwest,0.9,No
2017/11/12,14:00,0.332,0.215,0.355,0.332,0.314,0.172,0.102,north-northwest,1.2,No
2017/11/12,14:10,0.333,0.213,0.352,0.334,0.317,0.173,0.102,north-northwest,0.8,No
2017/11/12,14:20,0.333,0.214,0.354,0.331,0.315,0.171,0.102,north-northwest,1.4,No
2017/11/12,14:30,0.332,0.214,0.354,0.332,0.315,0.172,0.103,northwest,1.4,No
2017/11/12,14:40,0.335,0.215,0.353,0.333,0.316,0.172,0.102,northwest,0.7,No
2017/11/12,14:50,0.332,0.215,0.355,0.331,0.314,0.171,0.102,northwest,0.8,No
2017/11/12,15:00,0.334,0.214,0.353,0.333,0.316,0.171,0.102,north-northwest,0.8,No
2017/11/12,15:10,0.332,0.214,0.355,0.331,0.313,0.173,0.102,north-northwest,1.3,No
2017/11/12,15:20,0.331,0.212,0.352,0.334,0.318,0.172,0.103,north-northwest,0.8,No
2017/11/12,15:30,0.334,0.215,0.353,0.332,0.312,0.172,0.102,west,2.7,No
2017/11/12,15:40,0.332,0.213,0.352,0.333,0.316,0.172,0.103,west,3.2,No
2017/11/12,15:50,0.333,0.213,0.354,0.332,0.314,0.170,0.103,west,5.2,No
2017/11/12,16:00,0.333,0.214,0.355,0.332,0.317,0.172,0.102,west-northwest,3.8,No
2017/11/12,16:10,0.335,0.214,0.352,0.334,0.316,0.172,0.103,west-northwest,2.8,No
2017/11/12,16:20,0.334,0.214,0.355,0.332,0.314,0.172,0.102,west-northwest,4.2,No
2017/11/12,16:30,0.334,0.215,0.352,0.333,0.317,0.173,0.103,west-northwest,5.1,No
2017/11/12,16:40,0.334,0.214,0.354,0.333,0.316,0.171,0.103,west-northwest,7.3,No
2017/11/12,16:50,0.332,0.215,0.355,0.334,0.314,0.173,0.102,west-northwest,6.5,No
2017/11/12,17:00,0.334,0.214,0.353,0.332,0.314,0.174,0.102,northwest,4.8,No
2017/11/12,17:10,0.334,0.214,0.355,0.332,0.314,0.174,0.103,northwest,4.2,No
2017/11/12,17:20,0.333,0.214,0.353,0.332,0.315,0.174,0.102,north-northwest,3.5,No
2017/11/12,17:30,0.334,0.215,0.353,0.334,0.315,0.172,0.102,northwest,3.6,No
2017/11/12,17:40,0.333,0.214,0.355,0.333,0.313,0.173,0.103,northwest,4.5,No
2017/11/12,17:50,0.332,0.214,0.354,0.333,0.314,0.173,0.102,west-northwest,4.6,No
2017/11/12,18:00,0.333,0.214,0.353,0.335,0.314,0.172,0.103,west-northwest,4.4,No
2017/11/12,18:10,0.335,0.214,0.353,0.331,0.313,0.173,0.103,west-northwest,4.4,No
2017/11/12,18:20,0.334,0.214,0.353,0.333,0.314,0.173,0.103,west-northwest,4.6,No
2017/11/12,18:30,0.332,0.214,0.354,0.333,0.314,0.173,0.103,west-northwest,5.2,No
2017/11/12,18:40,0.334,0.215,0.353,0.332,0.314,0.172,0.102,west-northwest,6.2,No
2017/11/12,18:50,0.332,0.214,0.352,0.333,0.315,0.173,0.103,northwest,6.0,No
2017/11/12,19:00,0.333,0.213,0.353,0.333,0.313,0.173,0.103,northwest,5.2,No
2017/11/12,19:10,0.335,0.215,0.353,0.333,0.313,0.173,0.102,north-northwest,3.5,No
2017/11/12,19:20,0.333,0.215,0.352,0.331,0.315,0.173,0.103,north-northwest,4.3,No
2017/11/12,19:30,0.334,0.214,0.355,0.333,0.313,0.172,0.103,north-northwest,5.7,No
2017/11/12,19:40,0.335,0.214,0.353,0.333,0.314,0.172,0.103,north-northwest,5.8,No
2017/11/12,19:50,0.333,0.213,0.354,0.333,0.314,0.172,0.102,north-northwest,4.1,No
2017/11/12,20:00,0.333,0.214,0.355,0.333,0.314,0.173,0.102,northwest,2.9,No
2017/11/12,20:10,0.335,0.213,0.354,0.332,0.315,0.172,0.103,northwest,4.2,No
2017/11/12,20:20,0.334,0.215,0.353,0.332,0.317,0.173,0.103,northwest,4.9,No
2017/11/12,20:30,0.333,0.214,0.355,0.333,0.314,0.172,0.103,northwest,4.6,No
2017/11/12,20:40,0.334,0.214,0.353,0.333,0.314,0.172,0.103,northwest,5.5,No
2017/11/12,20:50,0.335,0.215,0.355,0.333,0.313,0.173,0.103,northwest,4.9,No
2017/11/12,21:00,0.334,0.213,0.355,0.334,0.315,0.172,0.103,north-northwest,4.4,No
2017/11/12,21:10,0.333,0.215,0.352,0.334,0.313,0.173,0.103,northwest,4.6,No
2017/11/12,21:20,0.334,0.214,0.354,0.333,0.316,0.173,0.102,northwest,7.2,No
2017/11/12,21:30,0.332,0.214,0.356,0.333,0.314,0.172,0.103,northwest,7.3,No
2017/11/12,21:40,0.334,0.215,0.353,0.334,0.313,0.172,0.103,north-northwest,7.1,No
2017/11/12,21:50,0.334,0.215,0.354,0.331,0.314,0.173,0.103,north-northwest,7.3,No
2017/11/12,22:00,0.333,0.215,0.355,0.331,0.315,0.172,0.103,north,6.9,No
2017/11/12,22:10,0.333,0.215,0.353,0.332,0.314,0.173,0.103,north,6.1,No
2017/11/12,22:20,0.334,0.213,0.353,0.334,0.315,0.173,0.103,north,4.9,No
2017/11/12,22:30,0.335,0.214,0.355,0.332,0.315,0.173,0.103,north,7.0,No
2017/11/12,22:40,0.333,0.214,0.354,0.333,0.314,0.173,0.103,north-northwest,5.1,No
2017/11/12,22:50,0.334,0.214,0.354,0.334,0.315,0.172,0.102,northwest,5.5,No
2017/11/12,23:00,0.334,0.214,0.355,0.334,0.315,0.173,0.103,northwest,6.3,No
2017/11/12,23:10,0.332,0.214,0.354,0.332,0.314,0.173,0.102,west-northwest,7.7,No
2017/11/12,23:20,0.335,0.214,0.352,0.334,0.315,0.173,0.103,northwest,9.0,No
2017/11/12,23:30,0.333,0.215,0.354,0.334,0.315,0.172,0.103,northwest,9.0,No
2017/11/12,23:40,0.333,0.213,0.352,0.334,0.313,0.173,0.102,northwest,9.5,No
2017/11/12,23:50,0.334,0.213,0.354,0.333,0.314,0.173,0.103,northwest,9.8,No
